Simultaneous Nadir Overpasses (SNOs) Predictions

Prediction of SNOs between METOP-A and NOAA-19 Satellite Orbit:

Table of predicted SNOs for the next 14.0 days since TLE Epoch: 2/24/2017
Index Date (METOP-A) Time (METOP-A) Lat,Lon (METOP-A) SZA (METOP-A ) Date (NOAA-19) Time (NOAA-19) Lat,Lon (NOAA-19) SZA (NOAA-19 ) Distance(km) Time Diff (sec)
1 03/04/2017 01:41:20 76.96, 158.10 83.31 03/04/2017 01:40:10 76.96, 158.09 83.31 0.61 70
2 03/04/2017 02:32:02 -76.94, -34.67 96.73 03/04/2017 02:31:06 -76.96, -34.65 96.71 2.30 56
3 03/04/2017 03:22:42 76.95, 132.68 83.27 03/04/2017 03:22:11 76.93, 132.71 83.25 2.08 31
4 03/04/2017 04:13:24 -76.92, -60.09 96.78 03/04/2017 04:13:07 -76.93, -60.02 96.77 1.84 17
5 03/04/2017 05:04:04 76.93, 107.27 83.22 03/04/2017 05:04:13 76.94, 107.16 83.23 3.16 9
6 03/04/2017 05:54:46 -76.90, -85.50 96.82 03/04/2017 05:55:08 -76.90, -85.40 96.83 2.58 22
7 03/04/2017 06:45:26 76.91, 81.86 83.17 03/04/2017 06:46:14 76.91, 81.78 83.18 1.84 48
8 03/04/2017 07:36:07 -76.89,-110.91 96.87 03/04/2017 07:37:09 -76.91,-110.96 96.84 3.16 62




NCC Satellite Simultaneous Nadir Overpasses (SNOs) Prediction Service
